Omaha, IA

2:13 AM CDT on April 20, 2018 (GMT -0500)
Eppley Airfield

Weather History for KOMA - October, 2011

Change the Weather History Date:

Friday, October 14, 2011

  Actual Average Record
Temperature  
Mean Temperature 55 °F 54 °F  
Max Temperature 64 °F 66 °F 91 °F (1897)
Min Temperature 45 °F 42 °F 22 °F (1937)
Degree Days  
Heating Degree Days 10 11  
Month to date heating degree days 27 131  
Since 1 July heating degree days 143 234  
Cooling Degree Days 0 0  
Month to date cooling degree days 45 12  
Year to date cooling degree days 1378 1109  
Growing Degree Days 6 (Base 50)    
Moisture  
Dew Point 33 °F    
Average Humidity 44    
Maximum Humidity 61    
Minimum Humidity 27    
Precipitation  
Precipitation 0.00 in 0.07 in 1.71 in (2007)
Month to date precipitation 0.27 1.04  
Year to date precipitation 25.56 26.83  
Snow  
Snow 0.00 in 0.00 in - ()
Month to date snowfall 0.0 0.1  
Since 1 July snowfall 0.0 0.1  
Snow Depth 0.00 in    
Sea Level Pressure  
Sea Level Pressure 29.95 in    
Wind  
Wind Speed 13 mph (WNW)    
Max Wind Speed 28 mph    
Max Gust Speed 36 mph    
Visibility 10 miles    
Events      
T = Trace of Precipitation, MM = Missing Value Source: NWS Daily Summary

Daily Weather History Graph

Daily Weather History Graph

Search for Another Location

Airport or City:

Astronomy

Oct. 14, 2011 Rise Set
Actual Time 7:33 AM CDT 6:44 PM CDT
Civil Twilight 7:06 AM CDT 7:12 PM CDT
Nautical Twilight 6:34 AM CDT 7:44 PM CDT
Astronomical Twilight 6:02 AM CDT 8:16 PM CDT
Moon 7:56 PM CDT (10/14) 10:05 AM CDT (10/14)
Length of Visible Light 12h 06m
Length of Day
11h 10m
Waning Gibbous, 94% of the Moon is Illuminated
Oct 14
Waning Gibbous
Oct 19
Last Quarter
Oct 26
New
Nov 2
First Quarter
Nov 10
Full

Hourly Weather History & Observations

Time (CDT) Temp. Windchill Dew Point Humidity Pressure Visibility Wind Dir Wind Speed Gust Speed Precip Events Conditions
12:52 AM 55.9 °F - 34.0 °F 44% 29.83 in 10.0 mi West 12.7 mph - N/A   Clear
1:52 AM 53.1 °F - 35.1 °F 50% 29.84 in 10.0 mi WNW 5.8 mph - N/A   Clear
2:52 AM 50.0 °F - 36.0 °F 59% 29.86 in 10.0 mi WNW 8.1 mph - N/A   Clear
3:52 AM 50.0 °F - 36.0 °F 59% 29.87 in 10.0 mi NNW 6.9 mph - N/A   Clear
4:52 AM 48.0 °F - 35.1 °F 61% 29.87 in 10.0 mi NW 8.1 mph - N/A   Clear
5:52 AM 48.0 °F - 36.0 °F 63% 29.90 in 10.0 mi WNW 8.1 mph - N/A   Clear
6:52 AM 48.0 °F - 36.0 °F 63% 29.91 in 10.0 mi NW 12.7 mph - N/A   Partly Cloudy
7:52 AM 48.2 °F - 35.6 °F 62% 29.93 in 10.0 mi WNW 10.4 mph 19.6 mph N/A   Partly Cloudy
8:52 AM 51.1 °F - 37.9 °F 61% 29.95 in 10.0 mi NW 13.8 mph - N/A   Scattered Clouds
9:52 AM 55.9 °F - 37.9 °F 51% 29.96 in 10.0 mi NW 16.1 mph 21.9 mph N/A   Scattered Clouds
10:52 AM 59.0 °F - 37.4 °F 45% 29.97 in 10.0 mi NW 19.6 mph 25.3 mph N/A   Mostly Cloudy
11:52 AM 61.0 °F - 35.1 °F 38% 29.97 in 10.0 mi NW 20.7 mph 32.2 mph N/A   Overcast
12:52 PM 60.1 °F - 34.0 °F 38% 29.98 in 10.0 mi NW 21.9 mph 32.2 mph N/A   Overcast
1:52 PM 60.1 °F - 33.1 °F 36% 29.98 in 10.0 mi NW 18.4 mph 25.3 mph N/A   Mostly Cloudy
2:52 PM 62.1 °F - 30.9 °F 31% 29.96 in 10.0 mi WNW 21.9 mph 28.8 mph N/A   Mostly Cloudy
3:52 PM 63.0 °F - 30.9 °F 30% 29.95 in 10.0 mi WNW 18.4 mph - N/A   Mostly Cloudy
4:52 PM 62.1 °F - 28.0 °F 28% 29.96 in 10.0 mi WNW 21.9 mph 31.1 mph N/A   Scattered Clouds
5:52 PM 61.0 °F - 28.9 °F 30% 29.97 in 10.0 mi WNW 15.0 mph 23.0 mph N/A   Scattered Clouds
6:52 PM 57.0 °F - 28.9 °F 34% 29.98 in 10.0 mi West 11.5 mph - N/A   Partly Cloudy
7:52 PM 55.0 °F - 28.9 °F 37% 30.00 in 10.0 mi West 11.5 mph - N/A   Clear
8:52 PM 55.0 °F - 30.0 °F 38% 30.01 in 10.0 mi WNW 16.1 mph - N/A   Clear
9:52 PM 53.1 °F - 30.0 °F 41% 30.03 in 10.0 mi WNW 11.5 mph - N/A   Clear
10:52 PM 50.0 °F - 30.9 °F 48% 30.04 in 10.0 mi WNW 9.2 mph - N/A   Clear
11:52 PM 46.0 °F 44.8 °F 32.0 °F 58% 30.05 in 10.0 mi NNW 3.5 mph - N/A   Clear